FENGYUN 1C DEB

Satellite information

Favourite Embed

Satellite Type and Status

DEBRISIN ORBIT

Key statistics

Satellite FENGYUN 1C DEB at a glance.

Uptime

9658

Days in orbit

Revolutions

≈ 14.3

Per day

Orbit

SSO

Sun Synchronous Orbit

Inclination

99.0

Latest

Satellite identification and parameters

Extended collection of information and parameters for FENGYUN 1C DEB.

Object identification

Identified? True

Debris? True

Object name: FENGYUN 1C DEB

International designator: 1999-025BRE

Object number (NORAD): 31350

Object ID (CCSDS): 31350

Country: PEOPLES REPUBLIC OF CHINA (PRC)

Current information (Y/N): Y

RCS size: SMALL

Orbital parameters

Period: 100.38 minutes

Inclination: 98.9603 deg

SMA: 7154.725 km

Apoapsis: 823.894 km

Periapsis: 729.286 km

RAAN: 95.9515 deg

Eccentricy: 0.00661155

Argument of periapsis: 302.9541 deg

Mean anomaly: 56.5296 deg

Mean motion: 14.3454215 rev/day

Mean motion (dot): 0.00001934 rev/day2

B* drag term: 0.00068506864 1/REarth

Two-line elements (TLE)

Creation date: Oct. 13, 2025, 10:50 a.m.

Reference frame: TEME

Reference center: EARTH

Epoch: Oct. 13, 2025, 4:34 a.m. UTC

TLE line 0: 0 FENGYUN 1C DEB

TLE line 1: 1 31350U 99025BRE 25286.19091976 .00001934 00000-0 68507-3 0 9998

TLE line 2: 2 31350 98.9603 95.9515 0066116 302.9541 56.5296 14.34542150693850

Live tracking on map

Real-time ground track for satellite FENGYUN 1C DEB.

In-orbit conjunctions

A list of the most updated potential collisions computed for object FENGYUN 1C DEB.

Target Orbit TCA Probability of collision Miss distance Type
METEOR 2-10 LEO 2025-10-03 01:26:27 0.0002343091 206.0 (m) PAYLOAD
DMSP 5D-2 F13 DEB SSO 2025-03-23 16:12:42 0.000194566 65.0 (m) DEBRIS
CZ-6A DEB LEO 2024-12-26 18:49:19 0.0001906292 295.0 (m) DEBRIS
COSMOS 2251 DEB LEO 2024-11-10 13:52:41 0.0002646464 882.0 (m) DEBRIS

Associated space launch

Chinese polar orbiting meteorological satellite

FENGYUN 1C DEB was lifted into orbit during the mission ‘Long March 4B | Feng Yun 1C’, on board a Long March 4B space rocket.

The launch took place on May 10, 1999, 1:33 a.m. from Launch Complex 7.

For more information about the launch, click the button.

Launch to space Long March 4B | Feng Yun 1C
Long March 4B | Feng Yun 1C

Agency: N/A

Status: Launch Successful

Launch date: May 10, 1999, 1:33 a.m. UTC

Rocket: Long March 4B

Launch pad: Launch Complex 7

Location: Taiyuan Satellite Launch Center, People's Republic of China

...

Latest news about this satellite

There are no fresh news available about this satellite. Check back as we update our databases every day.


Newsletter sign-up

Weekly statistics, charts and insights to help you stay on top of the space industry.